{"data":{"norad_id":51964,"epoch":"2026-05-24T23:26:54.110688Z","epoch_age_seconds":87233,"freshness":"FRESH","line1":"1 51964U 22025J   26144.97701517 -.00001076  00000+0 -22918-4 0  9991","line2":"2 51964  53.1613  29.4713 0000863  98.6464 261.4635 15.31692497232704","mean_motion":15.31692497,"eccentricity":8.63e-5,"inclination_deg":53.1613,"raan_deg":29.4713,"arg_perigee_deg":98.6464,"mean_anomaly_deg":261.4635,"bstar":-2.2918e-5,"rev_number":23270,"period_min":94.013648484954,"perigee_km":470.17130135464,"apogee_km":471.35342138441,"semimajor_km":6848.8993613695,"source":"CELESTRAK","updated_at":"2026-05-25T13:38:16.992275Z"}}